Location: Copeville
(33.0796°N, 96.4155°W)
Time: 10:48:40
(UTC+00:00)

Oscar 11 - Pass Details

Date: 05 April 2023
Orbit: 609 x 619 km, 97.7° (Epoch: 07 June)

Event Time Altitude Azimuth Distance (km) Brightness Sun altitude
Rises 10:24:11 0° 19° (NNE) 2,878 11.1 -21.9°
Reaches altitude 10° 10:26:26 10° 25° (NNE) 1,971 10.3 -21.4°
Maximum altitude 10:30:34 47° 99° (E) 817 8.0 -20.6°
Drops below altitude 10° 10:34:41 10° 174° (S) 1,965 9.5 -19.8°
Enters shadow 10:35:21 - 176° (S) 2,233 9.7 -19.7°
